[[{"header":{"parameterUnit":"m.s-1","parameterCategory":1,"la1":30.2991,"la2":30.254,"lo1":-89.0895,"lo2":-89.0444,"dy":0.0017,"dx":0.0017,"nx":28,"ny":28,"refTime":"2025-12-04T09:00:00:Z","depth":0,"parameterNumber":2,"parameterNumberName":"U-component_of_WINDS"},"data":[0,0,0,0,0,0,0,0,0,0,0,0,0,0,0,0,0,0,0,0,0,0,0,0,0,0,0,0,0,0,0,0,0,0,0,0,0,0,0,0,0,0,0,0,0,0,0,0,0,0,0,0,0,0,0,0,0,0,-6.8222,-6.8223,0,-6.8344,-6.8345,-6.8346,-6.8192,-6.8187,-6.8181,-6.8176,-6.8301,-6.8309,-6.8318,0,0,0,0,0,0,0,0,0,0,0,0,0,-6.7857,-6.7865,-6.8222,-6.8223,-6.8225,-6.8343,-6.8345,-6.8347,-6.8193,-6.8187,-6.818,-6.8173,-6.8298,-6.8308,-6.8318,0,0,0,0,0,0,0,0,0,0,0,0,0,-6.8001,-6.7867,-6.8222,-6.8163,-6.8159,-6.8343,-6.8345,-6.8347,-6.8195,-6.8186,-6.8178,-6.817,-6.8295,-6.8307,-6.832,-6.8568,0,0,-6.8359,-6.8365,0,0,0,0,0,0,0,0,-6.7993,-6.8015,-6.817,-6.8167,-6.8163,-6.8244,-6.8262,-6.8421,-6.8197,-6.8181,-6.8176,-6.8166,-6.8289,-6.8302,-6.8343,-6.8574,-6.8579,-6.836,-6.8368,-6.8374,-6.8377,0,0,0,0,0,0,0,-6.7983,-6.8009,-6.827,-6.8172,-6.8168,-6.813,-6.8141,-6.8291,-6.8281,-6.8182,-6.8171,-6.8188,-6.8285,-6.8331,-6.8345,-6.8581,-6.836,-6.8371,-6.8379,-6.8384,-6.9022,-6.9031,0,0,0,0,0,0,-6.798,-6.8001,-6.8266,-6.8274,-6.8056,-6.8144,-6.8156,-6.8227,-6.8279,-6.8279,-6.8195,-6.818,-6.8313,-6.833,-6.8349,-6.8643,-6.8373,-6.8385,-6.8393,-6.9013,-6.9024,-6.9034,0,0,0,0,0,0,-6.7973,-6.8005,-6.8261,-6.8135,-6.8164,-6.8159,-6.8239,-6.8234,-6.8279,-6.8288,-6.8286,-6.8243,-6.8307,-6.833,-6.8515,-6.8645,-6.8391,-6.8403,-6.9002,-6.9016,-6.9029,-6.9235,0,0,0,0,0,0,-6.7963,-6.8004,-6.8098,-6.8138,-6.8172,-6.8426,-6.8247,-6.8242,-6.8301,-6.8283,-6.8333,-6.8333,-6.8302,-6.8496,-6.8528,-6.8659,-6.8413,-6.899,-6.9008,-6.9025,-6.9216,-6.9254,-6.9286,0,0,0,0,0,-6.7951,-6.8151,-6.8103,-6.8136,-6.8289,-6.8434,-6.8453,-6.8413,-6.8313,-6.8407,-6.8413,-6.8332,-6.8626,-6.8516,-6.855,-6.8687,-6.8982,-6.9003,-6.9023,-6.92,-6.9246,-6.9285,0,0,0,0,0,0,-6.8126,-6.8155,-6.8103,-6.8322,-6.8377,-6.8407,-6.8526,-6.8463,-6.8547,-6.8527,-6.8473,-6.8486,-6.8683,-6.8703,-6.8581,-6.893,-6.8787,-6.8816,-6.891,-6.8954,-6.8988,-6.898,-6.8424,0,0,0,0,0,-6.819,-6.8305,-6.8324,-6.8515,-6.8545,-6.8532,-6.8593,-6.8557,-6.8612,-6.8634,-6.8654,-6.871,-6.8815,-6.8885,-6.8982,-6.9218,-6.9227,-6.9329,-6.9363,-6.9392,-6.9418,-6.9545,-6.9591,-6.9102,-6.9102,-6.9102,0,0,-6.8324,-6.8354,-6.843,-6.8551,-6.859,-6.871,-6.8552,-6.8686,-6.8775,-6.8654,-6.883,-6.8847,-6.8906,-6.9117,-6.9211,-6.914,-6.9555,-6.9419,-6.9441,-6.9452,-6.9571,-6.9617,-6.9659,-6.9117,-6.9114,-6.9112,0,0,-6.863,-6.8664,-6.8827,-6.8869,-6.8929,-6.8918,-6.8958,-6.8999,-6.9005,-6.918,-6.9093,-6.9198,-6.9379,-6.9426,-6.9473,-6.9797,-6.9726,-6.983,-7.0013,-7.0138,-7.0176,-7.021,-7.0327,-7.0369,-6.9855,-6.9856,-6.9856,0,-6.8789,-6.8967,-6.8919,-6.906,-6.9116,-6.9013,-6.9179,-6.9221,-6.931,-6.9352,-6.927,-6.9497,-6.9529,-6.9751,-6.983,-6.9871,-6.9915,-6.9825,-7.0174,-7.0208,-7.0239,-7.035,-7.0393,-6.9868,-6.9867,-6.9865,-6.9864,0,-6.916,-6.9285,-6.9409,-6.9498,-6.9568,-6.9721,-6.9697,-6.9774,-6.9732,-6.9731,-6.9911,-6.9946,-7.0049,-7.0098,-7.0059,-7.0315,-7.0269,-7.0182,-7.0038,-7.0298,-7.0402,-7.0444,-6.9886,-6.9881,-6.9878,-6.9875,0,0,-6.958,-6.9641,-6.9688,-6.9727,-6.9786,-6.9881,-7.0029,-7.013,-7.0198,-7.0262,-7.0386,-7.0542,-7.0462,-7.0516,-7.0481,-7.059,-7.0846,-7.0489,-7.049,-7.0556,-7.1132,-7.1198,-7.1248,-7.0798,-7.0806,-7.0813,-7.1127,0,-6.9887,-7.0143,-7.0105,-7.0352,-7.0468,-7.0371,-7.05,-7.055,-7.0553,-7.0651,-7.0652,-7.0765,-7.065,-7.0682,-7.0786,-7.0793,-7.0961,-7.077,-7.0914,-7.092,-7.0904,-7.1302,-7.1372,-7.1667,-7.1167,-7.1174,-7.1179,0,-7.0279,-7.0359,-7.0618,-7.066,-7.0706,-7.0823,-7.0913,-7.1007,-7.1063,-7.1057,-7.1118,-7.1063,-7.1211,-7.1063,-7.1268,-7.1138,-7.1195,-7.1207,-7.1218,-7.1231,-7.1066,-7.1327,-7.176,-7.1805,-7.1242,-7.1237,-7.1232,0,-7.0562,-7.0733,-7.0911,-7.0947,-7.1,-7.1084,-7.111,-7.1157,-7.122,-7.1298,-7.1339,-7.1434,-7.1486,-7.1561,-7.1533,-7.1428,-7.1744,-7.1593,-7.1744,-7.1745,-7.1816,-7.1812,-7.2266,-7.1851,-7.185,-7.1849,-7.1848,0,-7.0909,-7.1072,-7.1038,-7.1148,-7.1328,-7.1282,-7.1461,-7.1475,-7.1518,-7.1628,-7.155,-7.1655,-7.1612,-7.1715,-7.1694,-7.1867,-7.1891,-7.1891,-7.1884,-7.1899,-7.19,-7.1936,-7.1916,-7.1861,-7.1858,-7.1856,-7.1854,0,-7.1256,-7.124,-7.1427,-7.1461,-7.1474,-7.1605,-7.1634,-7.1737,-7.1733,-7.1874,-7.1905,-7.1899,-7.2016,-7.1996,-7.2125,-7.2111,-7.2328,-7.2295,-7.231,-7.2303,-7.2455,-7.2442,-7.295,-7.3015,-7.2556,-7.2561,-7.2564,0,-7.1479,-7.1602,-7.165,-7.1718,-7.1751,-7.1862,-7.1926,-7.1886,-7.1956,-7.2029,-7.2123,-7.2233,-7.2319,-7.2511,-7.2519,-7.2618,-7.2588,-7.2759,-7.2602,-7.2614,-7.2592,-7.2586,-7.2598,-7.279,-7.2796,-7.28,-7.2803,0,-7.1878,-7.1864,-7.196,-7.2054,-7.2133,-7.2204,-7.2268,-7.2329,-7.2294,-7.2377,-7.2496,-7.2563,-7.2696,-7.2807,-7.2899,-7.2925,-7.2861,-7.2852,-7.2893,-7.291,-7.2915,-7.2916,-7.2396,-7.2841,-7.2837,-7.2835,-7.2833,-7.2831,-7.2171,-7.2276,-7.2326,-7.2436,-7.248,-7.2542,-7.264,-7.2649,-7.2747,-7.2852,-7.2822,-7.2958,-7.301,-7.3127,-7.3165,-7.327,-7.3207,-7.3265,-7.328,-7.3295,-7.3314,-7.2897,-7.3287,-7.3286,-7.3285,-7.3284,-7.3283,0,-7.2567,-7.2594,-7.2695,-7.2788,-7.2874,-7.2804,-7.2871,-7.2948,-7.3069,-7.3123,-7.3209,-7.3347,-7.3454,-7.3471,-7.3572,-7.3654,-7.3627,-7.3682,-7.3677,-7.3684,-7.3365,-7.332,-7.3703,-7.3703,-7.3703,-7.3703,-7.3703,-7.3703,-7.2783,-7.2958,-7.295,-7.3146,-7.3172,-7.3304,-7.3349,-7.3406,-7.3449,-7.3606,-7.3695,-7.3705,-7.3744,-7.3848,-7.3944,-7.3946,-7.3988,-7.4056,-7.4047,-7.3748,-7.3706,-7.3666,-7.3624,-7.4065,-7.4065,-7.4357,-7.436,-7.4362]},{"header":{"parameterUnit":"m.s-1","parameterCategory":1,"la1":30.2991,"la2":30.254,"lo1":-89.0895,"lo2":-89.0444,"dy":0.0017,"dx":0.0017,"nx":28,"ny":28,"refTime":"2025-12-04T09:00:00:Z","depth":0,"parameterNumber":3,"parameterNumberName":"V-component_of_WINDS"},"data":[0,0,0,0,0,0,0,0,0,0,0,0,0,0,0,0,0,0,0,0,0,0,0,0,0,0,0,0,0,0,0,0,0,0,0,0,0,0,0,0,0,0,0,0,0,0,0,0,0,0,0,0,0,0,0,0,0,0,-1.9286,-1.9286,0,-1.9341,-1.9342,-1.9342,-1.9352,-1.9352,-1.9351,-1.9351,-1.9407,-1.9408,-1.941,0,0,0,0,0,0,0,0,0,0,0,0,0,-1.9186,-1.9187,-1.9286,-1.9286,-1.9287,-1.9341,-1.9342,-1.9343,-1.9352,-1.9352,-1.9351,-1.9351,-1.9406,-1.9408,-1.9411,0,0,0,0,0,0,0,0,0,0,0,0,0,-1.9234,-1.9188,-1.9286,-1.9298,-1.93,-1.9341,-1.9342,-1.9343,-1.9352,-1.9352,-1.9351,-1.935,-1.9405,-1.9408,-1.9411,-1.9442,0,0,-1.942,-1.9421,0,0,0,0,0,0,0,0,-1.9231,-1.9238,-1.9296,-1.9298,-1.93,-1.9339,-1.9327,-1.9376,-1.9353,-1.9333,-1.9351,-1.935,-1.9385,-1.9389,-1.9401,-1.9445,-1.9447,-1.942,-1.9422,-1.9423,-1.9424,0,0,0,0,0,0,0,-1.9228,-1.9235,-1.9308,-1.9297,-1.9299,-1.9301,-1.9307,-1.9336,-1.9362,-1.9334,-1.9335,-1.9342,-1.9386,-1.9398,-1.9402,-1.9448,-1.942,-1.9422,-1.9424,-1.9425,-1.9519,-1.952,0,0,0,0,0,0,-1.9222,-1.9232,-1.9306,-1.9309,-1.9263,-1.9303,-1.931,-1.9327,-1.9361,-1.9366,-1.9342,-1.9342,-1.9394,-1.9399,-1.9404,-1.9443,-1.9423,-1.9426,-1.9427,-1.9519,-1.952,-1.952,0,0,0,0,0,0,-1.922,-1.9229,-1.9304,-1.9271,-1.9281,-1.9305,-1.9325,-1.9329,-1.9341,-1.9367,-1.9372,-1.9351,-1.9393,-1.94,-1.9433,-1.9445,-1.9427,-1.9429,-1.9518,-1.9519,-1.952,-1.952,0,0,0,0,0,0,-1.9217,-1.9228,-1.9241,-1.9271,-1.9282,-1.9332,-1.9326,-1.933,-1.9346,-1.9347,-1.9377,-1.9381,-1.9393,-1.9428,-1.9435,-1.9449,-1.9432,-1.9517,-1.9518,-1.952,-1.9519,-1.9521,-1.9523,0,0,0,0,0,-1.9214,-1.9239,-1.9242,-1.925,-1.9299,-1.9332,-1.9339,-1.9353,-1.9347,-1.936,-1.9376,-1.938,-1.9442,-1.9432,-1.944,-1.9454,-1.9516,-1.9518,-1.952,-1.9519,-1.9521,-1.9523,0,0,0,0,0,0,-1.9209,-1.9243,-1.9247,-1.9283,-1.9304,-1.9334,-1.9351,-1.9355,-1.9379,-1.9378,-1.9394,-1.9401,-1.9432,-1.9446,-1.9433,-1.9485,-1.9479,-1.9482,-1.9475,-1.9478,-1.948,-1.9475,-1.9434,0,0,0,0,0,-1.9213,-1.9237,-1.9265,-1.9294,-1.9305,-1.9326,-1.9341,-1.935,-1.9373,-1.9382,-1.9401,-1.9423,-1.9448,-1.9463,-1.9488,-1.9521,-1.9527,-1.9535,-1.9537,-1.9538,-1.9541,-1.9559,-1.9562,-1.9526,-1.9526,-1.9526,0,0,-1.922,-1.9241,-1.9256,-1.9294,-1.9312,-1.9336,-1.9334,-1.936,-1.9378,-1.9386,-1.9418,-1.9432,-1.9458,-1.949,-1.9506,-1.9503,-1.9552,-1.954,-1.9541,-1.9543,-1.9561,-1.9564,-1.9567,-1.9527,-1.9527,-1.9527,0,0,-1.9245,-1.9264,-1.9289,-1.9307,-1.9335,-1.9348,-1.9354,-1.9383,-1.9393,-1.9424,-1.9431,-1.9452,-1.9494,-1.9512,-1.9526,-1.9556,-1.956,-1.9563,-1.9573,-1.959,-1.9593,-1.9596,-1.9606,-1.9609,-1.9566,-1.9566,-1.9566,0,-1.925,-1.9287,-1.9302,-1.9328,-1.9344,-1.9352,-1.9378,-1.9394,-1.9428,-1.9438,-1.9435,-1.9487,-1.9505,-1.9541,-1.9548,-1.956,-1.9567,-1.956,-1.9592,-1.9594,-1.9597,-1.9607,-1.961,-1.9566,-1.9566,-1.9566,-1.9566,0,-1.9292,-1.9317,-1.9335,-1.9367,-1.9385,-1.941,-1.9428,-1.9444,-1.9451,-1.9464,-1.9496,-1.9517,-1.9545,-1.9555,-1.9562,-1.9592,-1.9589,-1.9589,-1.9582,-1.96,-1.961,-1.9614,-1.9567,-1.9567,-1.9566,-1.9566,0,0,-1.9317,-1.9356,-1.9362,-1.9376,-1.9406,-1.9426,-1.9451,-1.9478,-1.9491,-1.9514,-1.9535,-1.9569,-1.9568,-1.9585,-1.9594,-1.9609,-1.963,-1.9606,-1.9607,-1.9609,-1.9663,-1.9663,-1.9667,-1.9632,-1.9633,-1.9634,-1.9661,0,-1.9345,-1.9391,-1.9404,-1.9442,-1.9465,-1.9473,-1.9494,-1.9515,-1.9527,-1.9548,-1.9562,-1.9586,-1.9584,-1.9594,-1.9609,-1.9624,-1.9641,-1.9622,-1.9651,-1.9652,-1.9645,-1.9672,-1.9673,-1.9698,-1.9665,-1.9665,-1.9666,0,-1.9384,-1.9407,-1.9448,-1.9473,-1.9484,-1.9503,-1.9528,-1.9549,-1.9571,-1.9579,-1.9597,-1.9604,-1.963,-1.9622,-1.9656,-1.9643,-1.9656,-1.9665,-1.9666,-1.9669,-1.966,-1.9676,-1.9706,-1.9709,-1.9672,-1.9671,-1.9671,0,-1.9397,-1.9438,-1.9467,-1.9479,-1.951,-1.9524,-1.9537,-1.9559,-1.9574,-1.9596,-1.9606,-1.963,-1.9644,-1.9662,-1.9676,-1.9669,-1.9709,-1.9702,-1.9716,-1.9715,-1.9724,-1.9723,-1.9756,-1.9733,-1.9732,-1.9732,-1.9732,0,-1.9427,-1.9451,-1.9474,-1.9492,-1.9519,-1.9533,-1.9559,-1.9572,-1.9592,-1.9612,-1.962,-1.9638,-1.9655,-1.9675,-1.9686,-1.9712,-1.9718,-1.9725,-1.9728,-1.9724,-1.9723,-1.9733,-1.9731,-1.9733,-1.9733,-1.9733,-1.9733,0,-1.9447,-1.9463,-1.9495,-1.9521,-1.9528,-1.9547,-1.9569,-1.9586,-1.9599,-1.9624,-1.9631,-1.965,-1.9675,-1.969,-1.9721,-1.9728,-1.9757,-1.9759,-1.9749,-1.975,-1.9763,-1.9761,-1.9802,-1.9808,-1.9781,-1.9781,-1.9782,0,-1.9465,-1.9483,-1.9512,-1.9526,-1.9539,-1.9562,-1.9577,-1.9591,-1.9607,-1.9633,-1.9647,-1.9672,-1.9692,-1.9731,-1.9747,-1.9771,-1.9773,-1.9786,-1.9777,-1.9772,-1.9773,-1.9771,-1.9773,-1.9787,-1.9788,-1.9788,-1.9788,0,-1.9495,-1.9501,-1.9523,-1.9548,-1.9566,-1.9586,-1.9605,-1.9616,-1.9634,-1.965,-1.9675,-1.9691,-1.9723,-1.9747,-1.9771,-1.9784,-1.9789,-1.9791,-1.9795,-1.9792,-1.9785,-1.9788,-1.9753,-1.979,-1.9789,-1.9789,-1.9789,-1.9789,-1.9514,-1.953,-1.9552,-1.9576,-1.9592,-1.961,-1.9627,-1.9642,-1.9663,-1.969,-1.9696,-1.9722,-1.9743,-1.9776,-1.979,-1.981,-1.9808,-1.9814,-1.9816,-1.9817,-1.9817,-1.9782,-1.9814,-1.9814,-1.9814,-1.9814,-1.9814,0,-1.9543,-1.9558,-1.958,-1.9607,-1.9625,-1.9628,-1.9649,-1.9664,-1.9687,-1.9706,-1.9726,-1.9754,-1.9777,-1.9795,-1.9819,-1.9831,-1.9833,-1.9837,-1.9836,-1.9838,-1.9818,-1.9811,-1.9834,-1.9834,-1.9834,-1.9834,-1.9834,-1.9834,-1.9561,-1.9589,-1.9598,-1.9633,-1.9647,-1.9673,-1.9685,-1.9701,-1.9716,-1.9747,-1.9766,-1.9778,-1.9796,-1.9821,-1.9842,-1.9846,-1.9855,-1.9857,-1.9862,-1.9842,-1.984,-1.9838,-1.9832,-1.9859,-1.9859,-1.9881,-1.9881,-1.9882]}]]